Regional Weather Roundup
Issued by NWS

Home | Current Version | Previous Version | Graphics & Text | Print | Product List | Glossary Off
Versions: 1 2 3 4 5 6 7 8 9 10 11 12 13 14 15 16 17 18 19 20 21 22 23 24 25 26 27 28 29 30 31 32 33 34 35 36 37 38 39 40 41 42 43 44 45 46 47 48 49 50

000
ASUS43 KMKX 301700
RWRWI

WISCONSIN REGIONAL WEATHER ROUNDUP
NATIONAL WEATHER SERVICE MILWAUKEE/SULLIVAN WI
1200 PM CDT THU OCT 30 2014

NOTE: "FAIR" INDICATES FEW OR NO CLOUDS BELOW 12,000 FEET WITH NO
SIGNIFICANT WEATHER AND/OR OBSTRUCTIONS TO VISIBILITY.

WIZ001-002-006>008-014>016-023>028-301800-
NORTHWEST WISCONSIN

CITY           SKY/WX    TMP DP  RH WIND       PRES   REMARKS
SUPERIOR ARPT  CLOUDY    42  34  73 NW7       30.10S
ASHLAND        CLOUDY    41  34  76 W7        30.09S
HAYWARD        CLOUDY    40  32  73 VRB3      30.09R
SIREN          CLOUDY    41  33  74 N5        30.10S
CUMBERLAND     CLOUDY    41  34  75 N3        30.08S
RICE LAKE      CLOUDY    42  33  72 NW3       30.09F
CHETEK         CLOUDY    43  35  73 CALM      30.08S
LADYSMITH      CLOUDY    41  33  74 NW5       30.09S
EAU CLAIRE     CLOUDY    46  35  65 NW5       30.08S
MENOMONIE      MOSUNNY   43  34  71 CALM      30.09R
NEW RICHMOND   CLOUDY    45  35  66 N7        30.10R
OSCEOLA        CLOUDY    44  35  69 N5        30.13R
$$

WIZ003>005-009-010-017-018-301800-
NORTH CENTRAL WISCONSIN

CITY           SKY/WX    TMP DP  RH WIND       PRES   REMARKS
MANITOWISH WTR CLOUDY    37  33  87 W3        30.04S
ARBOR VITAE    CLOUDY    39  33  79 W8        30.05R WCI  34
WOODRUFF       CLOUDY    39  33  79 W8        30.05R WCI  34
RHINELANDER    CLOUDY    39  32  76 W9        30.05S WCI  33
EAGLE RIVER    CLOUDY    38  31  77 NW9       30.03S WCI  31
LAND O LAKES   CLOUDY    38  33  83 W3        30.04S
PHILLIPS       CLOUDY    39  32  76 CALM      30.05F
TOMAHAWK       CLOUDY    39  32  75 NW5       30.06S
MEDFORD        CLOUDY    38  34  82 CALM      30.06S
MERRILL        CLOUDY    39  34  82 W6        30.06F WCI  34
$$

WIZ029-030-035-036-043>047-301800-
CENTRAL WISCONSIN

CITY           SKY/WX    TMP DP  RH WIND       PRES   REMARKS
WAUSAU         CLOUDY    39  34  82 W3        30.06S
MOSINEE        PTSUNNY   41  36  81 W7        30.07S
MARSHFIELD     CLOUDY    46  36  68 VRB3      30.06S
STEVENS POINT  PTSUNNY   41  33  74 W3        30.08R
WAUPACA        PTSUNNY   48  36  62 W6        30.09R
WAUTOMA        NOT AVBL
WISC RAPIDS    CLOUDY    46  34  62 W7        30.09S
CAMP DOUGLAS   NOT AVBL
$$

WIZ011>013-019>022-031-037>040-048>050-301800-
NORTHEAST WISCONSIN

CITY           SKY/WX    TMP DP  RH WIND       PRES   REMARKS
ANTIGO         CLOUDY    38  33  84 W8        30.05S WCI  32
SHAWANO        CLOUDY    44  36  72 W5        30.08S
OCONTO         CLOUDY    44  34  67 W8        30.06F
STURGEON BAY   CLOUDY    45  34  65 SW13      30.06F
GREEN BAY      CLOUDY    45  35  68 W9        30.07F
MANITOWOC      NOT AVBL
APPLETON       PTSUNNY   45  34  65 W8        30.08S
CLINTONVILLE   CLOUDY    43  34  70 W5        30.07F
OSHKOSH        PTSUNNY   47  35  63 W7        30.07F
$$

WIZ032>034-041-042-053>061-301800-
SOUTHWEST WISCONSIN

CITY           SKY/WX    TMP DP  RH WIND       PRES   REMARKS
LA CROSSE      CLOUDY    45  36  70 S5        30.09S
SPARTA         CLOUDY    42  35  76 CALM      30.09S
VIROQUA        CLOUDY    43  35  75 SW5       30.08R
BOSCOBEL       CLOUDY    47  36  65 CALM      30.10S
PRAIRIE DU CHI CLOUDY    44  36  71 CALM      30.09S
PLATTEVILLE    PTSUNNY   47  37  67 S7        30.09F
$$

WIZ056-057-062-063-064-067-068-301800-
SOUTH CENTRAL WISCONSIN

CITY           SKY/WX    TMP DP  RH WIND       PRES   REMARKS
REEDSBURG      CLOUDY    45  35  68 W6        30.09S
BARABOO/DELLS  PTSUNNY   46  34  65 SW6       30.08F
LONE ROCK      NOT AVBL
MINERAL POINT  CLOUDY    48  36  61 SW6       30.09S
MADISON        CLOUDY    47  35  63 CALM      30.09F
MIDDLETON      CLOUDY    49  34  56 CALM      30.09F
WATERTOWN      PTSUNNY   46  36  67 SW6       30.09F
MONROE         PTSUNNY   46  34  61 SW8       30.09S
JANESVILLE     CLOUDY    46  36  66 CALM      30.10S
$$

WIZ051-052-058>065-066-070>072-301800-
SOUTHEAST WISCONSIN

CITY           SKY/WX    TMP DP  RH WIND       PRES   REMARKS
MILWAUKEE      PTSUNNY   48  33  56 SW10      30.10S
WAUKESHA       SUNNY     46  34  61 SW6       30.10F
MILWAUKEE/TIMM SUNNY     46  34  61 SW9       30.10S
RACINE         PTSUNNY   48  33  56 W9        30.11F
BURLINGTON     PTSUNNY   46  34  61 SW8       30.10S
KENOSHA        CLOUDY    49  35  58 W13       30.10F
FOND DU LAC    PTSUNNY   47  35  63 W8        30.08F
SHEBOYGAN      PTSUNNY   48  34  58 SW8       30.08S
WEST BEND      PTSUNNY   46  32  57 SW10      30.08F
JUNEAU         MOSUNNY   44  36  71 SW8       30.10S
$$

LSZ147-162-301800-
LAKE SUPERIOR

STATION/POSITION TIME  TEMP    WIND        PRES    WAVE
                       AIR SEA DIR/SP/G            HT/PER
                 (UTC) (F)     (DEG/KT/KT) (MB)    (FT/S)
W MID LAKE BUOY  1550   41 45  310/ 10/ 12 1017.4S   1/ 3
DEVILS ISLAND    1600   41     310/ 10/ 12 1018.6S
PORT WING        1600   41     300/  8/ 12 1019.0R
SAXON HARBOR     1600   41     280/  4/  7 1018.3S
$$

LMZ867-665-643>646-301800-
LAKE MICHIGAN

STATION/POSITION TIME  TEMP    WIND        PRES    WAVE
                       AIR SEA DIR/SP/G            HT/PER
                 (UTC) (F)     (DEG/KT/KT) (MB)    (FT/S)
CHAMBERS ISLAND  1600   44     240/  9/ 15 1017.9S
N MID LAKE BUOY  1550   44 50  170/  4/  4 1018.1F   0
NORTHPORT PIER   1600   45     210/  3/ 11 1017.9R
KEWAUNEE LAKESHO 1600   45     250/  4/  6 1017.5F
SHEBOYGAN LAKESH 1600   45 50  230/  8/  9 1019.4F
PORT WASHINGTON  1640   48     270/  8/ 12 1019.6F
ATWATER BUOY     1600   46     230/ 10/ 12 1020.1F
MILWAUKEE LAKESH 1600   45     250/  7/  8   N/A
S MID LAKE BUOY  1550   47 53  230/ 12/ 14 1020.1F   2/ 3
KENOSHA   LAKESH 1600   46     230/  5/ 10 1019.3F
$$

TC  - TEMPERATURE IN CELSIUS
VSB - VISIBILITY IN STATUTE MILES
WCI - WIND CHILL INDEX
HX  - HEAT INDEX




USA.gov is the U.S. government's official web portal to all federal, state and local government web resources and services.